sat.trackr.live / text

‹ back to catalog

SPAWAR-CAL-OR

NORAD 43778 · 2018-099W

PAYLOAD ACTIVE UNKNOWN

§ Identity

Operator
Country
US
Launch date
2018-12-03
Launch site
AFWTR
Launch vehicle
Mass (kg)
RCS (m²)

External: N2YO · Heavens-Above · Gunter

§ Orbital elements

Epoch: 2026-05-25T01:27:38.520864Z

Period
94.56 min
Inclination
97.3812°
Eccentricity
0.0012487
Mean motion
15.22872121 rev/d
Perigee alt
488.6 km
Apogee alt
505.8 km
Semi-major
6,875.3 km
B*
3.6930e-4
RAAN
193.6965°
Arg perigee
45.9705°
Mean anomaly
314.2559°
Rev number
40,913

§ Raw data

SPAWAR-CAL-OR1 43778U 18099W   26145.06086251  .00008602  00000+0  36930-3 0  99912 43778  97.3812 193.6965 0012487  45.9705 314.2559 15.22872121409139

JSON: /api/v1/satellites/43778 · /tle

For live sub-satellite position, see the globe view (requires WebGL).

§ Visibility from observer

Set your observer location to see the next 7 days of passes ≥ 10°. The values pass through the URL so the page stays shareable.

No JS? Fill the form by hand. The geolocation button needs JavaScript.